[[{"header":{"parameterUnit":"m.s-1","parameterCategory":2,"la1":30.2991,"la2":30.254,"lo1":-89.0895,"lo2":-89.0444,"dy":0.0017,"dx":0.0017,"nx":28,"ny":28,"refTime":"2024-11-27T09:00:00:Z","depth":"0","parameterNumber":2,"parameterNumberName":"U-component_of_CURRENTS"},"data":[0,0,0,0,0,0,0,0,0,0,0,0,0,0,0,0,0,0,0,0,0,0,0,0,0,0,0,0,0,0,0,0,0,0,0,0,0,0,0,0,0,0,0,0,0,0,0,0,0,0,0,0,0,0,0,0,0,0,0.185,0.1852,0,0.1937,0.1938,0.1938,0.196,0.196,0.196,0.196,0.2077,0.208,0.2083,0,0,0,0,0,0,0,0,0,0,0,0,0,0.1668,0.167,0.185,0.1852,0.1854,0.1937,0.1938,0.1938,0.196,0.196,0.196,0.196,0.2076,0.208,0.2083,0,0,0,0,0,0,0,0,0,0,0,0,0,0.1743,0.1671,0.185,0.188,0.1884,0.1937,0.1938,0.1938,0.196,0.196,0.196,0.196,0.2075,0.208,0.2084,0.2107,0,0,0.2098,0.21,0,0,0,0,0,0,0,0,0.1739,0.1748,0.1874,0.1878,0.1883,0.1945,0.1917,0.1999,0.196,0.1923,0.196,0.1961,0.2041,0.2048,0.2052,0.2113,0.2118,0.2098,0.2101,0.2103,0.2104,0,0,0,0,0,0,0,0.1733,0.1745,0.1877,0.1876,0.1882,0.1878,0.1889,0.1932,0.1974,0.1926,0.193,0.1952,0.2042,0.2048,0.2056,0.2119,0.2098,0.2102,0.2105,0.2106,0.2233,0.2234,0,0,0,0,0,0,0.174,0.174,0.1874,0.188,0.1819,0.1882,0.1893,0.1918,0.1973,0.1984,0.1952,0.1953,0.204,0.205,0.206,0.2156,0.2103,0.2107,0.2109,0.2232,0.2233,0.2234,0,0,0,0,0,0,0.1736,0.1751,0.1871,0.1818,0.1834,0.1886,0.1913,0.192,0.1928,0.1994,0.2003,0.1953,0.2041,0.2054,0.2102,0.2158,0.2109,0.2113,0.2231,0.2233,0.2233,0.2306,0,0,0,0,0,0,0.173,0.1749,0.1758,0.1819,0.1837,0.1896,0.1914,0.1922,0.1945,0.1947,0.1999,0.2009,0.2042,0.2095,0.2106,0.2163,0.2116,0.2231,0.2232,0.2233,0.2303,0.2309,0.2315,0,0,0,0,0,0.1723,0.1733,0.1758,0.1774,0.1852,0.1897,0.1904,0.1937,0.1945,0.1943,0.1985,0.2008,0.2111,0.2099,0.2112,0.2172,0.223,0.2232,0.2233,0.23,0.2308,0.2315,0,0,0,0,0,0,0.167,0.1739,0.1767,0.1802,0.1847,0.1903,0.1911,0.1934,0.1963,0.1967,0.2017,0.2031,0.2101,0.2108,0.2093,0.2206,0.2175,0.2179,0.2221,0.2229,0.2235,0.2316,0.212,0,0,0,0,0,0.1663,0.1686,0.1755,0.1786,0.1805,0.1856,0.1876,0.1902,0.1945,0.1957,0.2002,0.205,0.2116,0.2147,0.2192,0.2248,0.2319,0.2291,0.2297,0.2302,0.2374,0.2506,0.2533,0.2239,0.2239,0.2239,0,0,0.1668,0.1698,0.1723,0.1775,0.1811,0.1873,0.1866,0.1898,0.1967,0.1968,0.2051,0.2075,0.2133,0.2208,0.2239,0.2224,0.2414,0.2304,0.2309,0.2379,0.2511,0.2541,0.2567,0.224,0.224,0.224,0,0,0.1685,0.17,0.1731,0.1769,0.1822,0.1861,0.1872,0.193,0.1961,0.2028,0.2068,0.2132,0.2191,0.2276,0.2322,0.2386,0.2442,0.2371,0.248,0.2606,0.2633,0.2658,0.2758,0.2792,0.2374,0.2374,0.2374,0,0.1692,0.1753,0.1747,0.1792,0.1853,0.1865,0.1943,0.1976,0.2047,0.2108,0.2059,0.2229,0.225,0.2422,0.244,0.2414,0.2478,0.245,0.2621,0.2648,0.2672,0.2769,0.2805,0.2378,0.2377,0.2377,0.2377,0,0.1751,0.1806,0.1824,0.1906,0.1946,0.2007,0.2072,0.2116,0.2144,0.2205,0.2335,0.2366,0.2486,0.2479,0.2485,0.2676,0.2661,0.2616,0.2616,0.2708,0.2801,0.2838,0.2383,0.2382,0.2381,0.238,0,0,0.1803,0.1861,0.1877,0.1946,0.2022,0.2074,0.2175,0.2301,0.24,0.2437,0.2589,0.2678,0.2695,0.275,0.2759,0.2856,0.3048,0.2815,0.2819,0.294,0.3328,0.3275,0.331,0.3031,0.3039,0.3044,0.3313,0,0.1884,0.1988,0.1994,0.2139,0.2231,0.2267,0.2364,0.2464,0.2534,0.266,0.2729,0.2849,0.2798,0.2849,0.2953,0.3028,0.3154,0.298,0.3201,0.3209,0.3174,0.3355,0.3188,0.3412,0.3349,0.3356,0.336,0,0.2004,0.205,0.2184,0.2304,0.234,0.2404,0.2583,0.2667,0.2826,0.2878,0.3016,0.3057,0.3241,0.3139,0.3398,0.3287,0.335,0.3385,0.3395,0.3369,0.3229,0.3314,0.3481,0.3403,0.3417,0.3412,0.3408,0,0.2131,0.2223,0.2331,0.2375,0.2478,0.254,0.2599,0.2746,0.2818,0.3031,0.3101,0.3314,0.3402,0.3543,0.3621,0.3531,0.3877,0.3748,0.3781,0.3774,0.3697,0.3673,0.385,0.3981,0.398,0.398,0.3979,0,0.2298,0.2395,0.2379,0.2455,0.2554,0.2611,0.2734,0.2836,0.296,0.3068,0.3211,0.3333,0.3507,0.3687,0.3747,0.391,0.3997,0.3892,0.3882,0.3707,0.3682,0.3656,0.3603,0.399,0.3987,0.3986,0.3984,0,0.2486,0.2484,0.2594,0.2634,0.2627,0.2709,0.2736,0.2825,0.2952,0.3102,0.317,0.3397,0.363,0.3804,0.4046,0.4059,0.4121,0.4246,0.4022,0.3982,0.3862,0.3817,0.3906,0.3813,0.4328,0.4329,0.433,0,0.2577,0.2656,0.2677,0.2676,0.2682,0.2734,0.2751,0.2828,0.2893,0.312,0.3192,0.3469,0.3616,0.3977,0.4098,0.4286,0.4179,0.4256,0.4058,0.3931,0.3875,0.3691,0.3591,0.3971,0.3969,0.3967,0.3965,0,0.2708,0.2716,0.2772,0.2766,0.2758,0.2764,0.2783,0.2807,0.2917,0.302,0.3187,0.332,0.3648,0.378,0.4057,0.4136,0.4053,0.422,0.4172,0.3729,0.3467,0.3342,0.3697,0.3949,0.3951,0.3952,0.3953,0.3954,0.2736,0.2786,0.2797,0.2817,0.2801,0.2768,0.2739,0.2763,0.2808,0.291,0.3094,0.3214,0.3488,0.3804,0.39,0.3973,0.3908,0.3884,0.388,0.3736,0.3538,0.3859,0.4029,0.4031,0.4033,0.4034,0.4036,0,0.268,0.2747,0.2799,0.2778,0.2748,0.2743,0.2718,0.2661,0.265,0.2785,0.2882,0.3085,0.3257,0.3489,0.3702,0.3658,0.348,0.3618,0.3329,0.3276,0.3661,0.3532,0.3499,0.3499,0.3499,0.3499,0.3499,0.35,0.2634,0.2673,0.2734,0.2674,0.2656,0.2532,0.2486,0.2455,0.2482,0.2516,0.2581,0.2724,0.311,0.3462,0.3539,0.3469,0.3248,0.3109,0.314,0.3405,0.3427,0.3448,0.3316,0.3239,0.3239,0.258,0.2575,0.2572]},{"header":{"parameterUnit":"m.s-1","parameterCategory":2,"la1":30.2991,"la2":30.254,"lo1":-89.0895,"lo2":-89.0444,"dy":0.0017,"dx":0.0017,"nx":28,"ny":28,"refTime":"2024-11-27T09:00:00:Z","depth":"0","parameterNumber":3,"parameterNumberName":"V-component_of_CURRENTS"},"data":[0,0,0,0,0,0,0,0,0,0,0,0,0,0,0,0,0,0,0,0,0,0,0,0,0,0,0,0,0,0,0,0,0,0,0,0,0,0,0,0,0,0,0,0,0,0,0,0,0,0,0,0,0,0,0,0,0,0,0.0359,0.0359,0,0.0253,0.0251,0.0249,0.0164,0.0164,0.0164,0.0164,0.0186,0.0186,0.0187,0,0,0,0,0,0,0,0,0,0,0,0,0,0.036,0.036,0.0359,0.0359,0.0358,0.0254,0.0251,0.0249,0.0164,0.0164,0.0164,0.0164,0.0186,0.0186,0.0187,0,0,0,0,0,0,0,0,0,0,0,0,0,0.031,0.0361,0.0359,0.031,0.0305,0.0254,0.0251,0.0248,0.0164,0.0164,0.0164,0.0164,0.0185,0.0186,0.0187,0.0196,0,0,0.019,0.0191,0,0,0,0,0,0,0,0,0.0313,0.0308,0.0317,0.0313,0.0308,0.0229,0.026,0.024,0.0164,0.0208,0.0164,0.0164,0.0218,0.0216,0.0182,0.0197,0.0197,0.019,0.0191,0.0191,0.0192,0,0,0,0,0,0,0,0.0316,0.0312,0.0308,0.0317,0.0311,0.0249,0.0242,0.0254,0.0211,0.0204,0.02,0.0202,0.0215,0.0181,0.0183,0.0198,0.019,0.0191,0.0192,0.0192,0.0231,0.0231,0,0,0,0,0,0,0.0354,0.0316,0.0312,0.0306,0.032,0.0251,0.0242,0.0247,0.0208,0.0203,0.0202,0.0199,0.018,0.0182,0.0184,0.0237,0.0191,0.0192,0.0193,0.023,0.0231,0.0231,0,0,0,0,0,0,0.0354,0.0355,0.0316,0.0315,0.0307,0.0253,0.0258,0.0246,0.0211,0.0206,0.0202,0.0182,0.018,0.0182,0.0196,0.0236,0.0193,0.0194,0.023,0.023,0.0231,0.0316,0,0,0,0,0,0,0.0355,0.0355,0.036,0.0318,0.0309,0.0298,0.0259,0.0244,0.0217,0.0211,0.0189,0.0189,0.018,0.0195,0.0197,0.0237,0.0194,0.0229,0.023,0.0231,0.0313,0.032,0.0326,0,0,0,0,0,0.0355,0.036,0.036,0.036,0.0321,0.0299,0.0288,0.0241,0.0217,0.0207,0.0191,0.019,0.0201,0.0196,0.0199,0.024,0.0229,0.023,0.0231,0.031,0.0319,0.0326,0,0,0,0,0,0,0.0356,0.0352,0.0351,0.0354,0.034,0.0289,0.0275,0.0245,0.0216,0.0214,0.0197,0.0197,0.0224,0.0212,0.0206,0.0248,0.0215,0.0217,0.0275,0.0282,0.0289,0.034,0.0195,0,0,0,0,0,0.0367,0.037,0.0361,0.0362,0.0363,0.032,0.0302,0.0277,0.0253,0.0236,0.0227,0.0219,0.0228,0.0239,0.0237,0.0267,0.0252,0.0291,0.0298,0.0303,0.0344,0.0326,0.0335,0.0234,0.0234,0.0234,0,0,0.0377,0.0367,0.0375,0.0363,0.0346,0.0364,0.0306,0.029,0.0303,0.0252,0.0263,0.0243,0.0236,0.0263,0.0275,0.0264,0.032,0.0305,0.031,0.0348,0.0328,0.0338,0.0347,0.0235,0.0235,0.0235,0,0,0.0407,0.0388,0.0416,0.0411,0.0401,0.0379,0.0383,0.035,0.0332,0.0339,0.031,0.0313,0.0316,0.0323,0.0327,0.0368,0.0349,0.0365,0.0453,0.0434,0.0443,0.0451,0.0432,0.0437,0.0375,0.0375,0.0375,0,0.0427,0.0459,0.0418,0.0445,0.046,0.04,0.0447,0.0416,0.0389,0.0412,0.036,0.0378,0.035,0.0416,0.0418,0.039,0.0374,0.0427,0.0445,0.0453,0.0459,0.0438,0.0443,0.0379,0.0379,0.0378,0.0378,0,0.0489,0.0517,0.0529,0.0558,0.0557,0.0578,0.056,0.0555,0.0526,0.052,0.0556,0.0503,0.053,0.0504,0.0473,0.0525,0.0495,0.045,0.0433,0.0475,0.0448,0.0452,0.0385,0.0384,0.0382,0.0381,0,0,0.0544,0.0579,0.0583,0.062,0.0625,0.0626,0.0665,0.0702,0.075,0.0701,0.0776,0.0739,0.0717,0.072,0.0674,0.0647,0.0645,0.0578,0.0575,0.0574,0.0611,0.0602,0.0604,0.0602,0.0604,0.0605,0.0569,0,0.0623,0.0692,0.0698,0.0773,0.0813,0.0796,0.0843,0.0858,0.0862,0.0907,0.0864,0.0904,0.0799,0.0815,0.0775,0.069,0.0662,0.066,0.056,0.0558,0.0556,0.0611,0.0507,0.0469,0.0573,0.0573,0.0573,0,0.0694,0.0728,0.0819,0.0892,0.0915,0.095,0.1023,0.106,0.1113,0.1128,0.116,0.1132,0.1125,0.1,0.0896,0.0902,0.0779,0.0683,0.0678,0.0655,0.0557,0.0444,0.0471,0.0259,0.0579,0.0578,0.0578,0,0.0725,0.0816,0.0887,0.0907,0.0977,0.1026,0.1066,0.113,0.1183,0.1276,0.1339,0.1326,0.1321,0.1183,0.1,0.0951,0.0866,0.0765,0.0645,0.0641,0.0531,0.0517,0.036,0.0691,0.0691,0.0691,0.0691,0,0.0803,0.0869,0.0901,0.0934,0.1019,0.1066,0.1169,0.1224,0.1329,0.1431,0.1453,0.1524,0.1362,0.1298,0.1093,0.0912,0.0941,0.0697,0.0648,0.0555,0.0545,0.0337,0.0236,0.069,0.069,0.069,0.069,0,0.0865,0.0881,0.0955,0.102,0.1027,0.1089,0.1188,0.1283,0.1395,0.1532,0.1576,0.1662,0.1609,0.1444,0.1237,0.1046,0.073,0.0778,0.0692,0.0636,0.0313,0.0221,0.0092,0.0004,0.0638,0.0638,0.0638,0,0.0909,0.0947,0.0978,0.0993,0.103,0.1102,0.1162,0.1276,0.1389,0.1607,0.169,0.1742,0.1769,0.1525,0.1215,0.0923,0.0728,0.0647,0.0528,0.0323,0.0183,0.0131,0.0063,0.0393,0.0391,0.0389,0.0387,0,0.0985,0.0984,0.1032,0.1052,0.1091,0.1168,0.1273,0.1357,0.1535,0.1681,0.1872,0.1922,0.1742,0.1452,0.112,0.0884,0.0486,0.0602,0.0395,0.0012,-0.0059,-0.0177,0.039,0.0372,0.0373,0.0375,0.0375,0.0376,0.1004,0.1056,0.107,0.1118,0.117,0.1271,0.1361,0.1507,0.1683,0.1938,0.1956,0.2046,0.1634,0.1175,0.0887,0.0308,0.0354,0.0064,-0.0021,-0.0044,-0.015,0.0414,0.0344,0.0345,0.0346,0.0347,0.0348,0,0.0987,0.1062,0.1126,0.1188,0.1289,0.1297,0.1465,0.1601,0.1823,0.1978,0.2119,0.1907,0.1362,0.0871,0.012,-0.0268,-0.0412,-0.0479,-0.0633,-0.0666,-0.0189,-0.0224,-0.0425,-0.0425,-0.0425,-0.0425,-0.0424,-0.0424,0.0967,0.104,0.1112,0.1261,0.1336,0.1485,0.1589,0.1801,0.1943,0.2133,0.2138,0.2135,0.1739,0.0297,-0.0618,-0.0822,-0.1076,-0.1155,-0.1205,-0.0969,-0.0927,-0.0887,-0.0945,-0.1295,-0.1296,-0.1696,-0.1701,-0.1704]}],[{"header":{"parameterUnit":"m.s-1","parameterCategory":2,"la1":30.2991,"la2":30.254,"lo1":-89.0895,"lo2":-89.0444,"dy":0.0017,"dx":0.0017,"nx":28,"ny":28,"refTime":"2024-11-27T09:00:00:Z","depth":"2","parameterNumber":2,"parameterNumberName":"U-component_of_CURRENTS"},"data":[0,0,0,0,0,0,0,0,0,0,0,0,0,0,0,0,0,0,0,0,0,0,0,0,0,0,0,0,0,0,0,0,0,0,0,0,0,0,0,0,0,0,0,0,0,0,0,0,0,0,0,0,0,0,0,0,0,0,0.1475,0.1477,0,0.1568,0.1568,0.1569,0.1647,0.1649,0.165,0.1651,0.1573,0.157,0.1567,0,0,0,0,0,0,0,0,0,0,0,0,0,0.1381,0.1382,0.1475,0.1477,0.1478,0.1568,0.1568,0.1569,0.1647,0.1649,0.165,0.1651,0.1574,0.157,0.1566,0,0,0,0,0,0,0,0,0,0,0,0,0,0.1439,0.1382,0.1475,0.153,0.1536,0.1567,0.1569,0.157,0.1647,0.1649,0.165,0.1652,0.1575,0.1571,0.1566,0.1503,0,0,0.1552,0.155,0,0,0,0,0,0,0,0,0.1436,0.1442,0.1521,0.1526,0.1533,0.1601,0.1507,0.154,0.1646,0.1602,0.1651,0.1653,0.1567,0.1563,0.1575,0.1499,0.1496,0.1551,0.1548,0.1546,0.1545,0,0,0,0,0,0,0,0.1432,0.1439,0.1509,0.1522,0.153,0.1555,0.1565,0.1514,0.1568,0.1606,0.1612,0.1627,0.1569,0.1579,0.1573,0.1495,0.1551,0.1547,0.1544,0.1542,0.1613,0.1617,0,0,0,0,0,0,0.1424,0.1435,0.1506,0.1512,0.1491,0.1556,0.1567,0.1575,0.1572,0.1576,0.1625,0.163,0.1586,0.1578,0.157,0.1678,0.1546,0.1542,0.1539,0.1608,0.1614,0.1619,0,0,0,0,0,0,0.1421,0.1429,0.1502,0.1478,0.149,0.1556,0.1564,0.1576,0.1606,0.159,0.159,0.1647,0.1588,0.1577,0.1594,0.1668,0.154,0.1536,0.1602,0.161,0.1616,0.1773,0,0,0,0,0,0,0.1418,0.1427,0.1456,0.1478,0.1491,0.1517,0.1563,0.1576,0.1613,0.1621,0.1607,0.1602,0.1588,0.1602,0.1589,0.1659,0.1532,0.1596,0.1606,0.1614,0.1762,0.1785,0.1804,0,0,0,0,0,0.1414,0.1427,0.1457,0.1467,0.152,0.1517,0.1525,0.1576,0.1612,0.1612,0.1657,0.1603,0.1651,0.16,0.1585,0.1655,0.1592,0.1603,0.1613,0.1753,0.178,0.1803,0,0,0,0,0,0,0.1418,0.1437,0.147,0.1496,0.1509,0.1531,0.1553,0.1579,0.1614,0.1651,0.1628,0.1625,0.1673,0.1642,0.1588,0.1712,0.1625,0.1633,0.1736,0.1761,0.1782,0.179,0.1528,0,0,0,0,0,0.1428,0.1434,0.1458,0.1481,0.1488,0.1523,0.1542,0.1581,0.1607,0.1627,0.1615,0.165,0.17,0.1712,0.1714,0.1748,0.1722,0.18,0.1821,0.1839,0.1842,0.1936,0.1965,0.1653,0.1653,0.1653,0,0,0.1433,0.1452,0.1457,0.1482,0.1502,0.1535,0.1537,0.1574,0.1643,0.1605,0.1676,0.1689,0.1722,0.1798,0.1819,0.1783,0.1905,0.1852,0.1867,0.186,0.195,0.198,0.2006,0.166,0.1659,0.1658,0,0,0.1449,0.1462,0.1484,0.15,0.1547,0.1559,0.1567,0.1596,0.1653,0.1711,0.1752,0.1814,0.1826,0.1902,0.1942,0.2069,0.2001,0.2082,0.2199,0.2292,0.2317,0.234,0.2292,0.2309,0.2108,0.2109,0.2109,0,0.1482,0.1504,0.1488,0.1531,0.1559,0.1568,0.1614,0.167,0.1713,0.1753,0.1754,0.1879,0.1892,0.2047,0.2136,0.2113,0.2114,0.2096,0.2317,0.2339,0.2359,0.2306,0.2323,0.2117,0.2117,0.2116,0.2115,0,0.1515,0.1556,0.1561,0.1615,0.1635,0.1663,0.1727,0.1762,0.1812,0.1862,0.1984,0.2047,0.2138,0.217,0.2203,0.2381,0.2312,0.2317,0.2244,0.24,0.2333,0.2347,0.213,0.2127,0.2124,0.2122,0,0,0.1528,0.1579,0.1591,0.1617,0.1688,0.1685,0.1802,0.1868,0.193,0.2021,0.2121,0.228,0.232,0.2376,0.2435,0.2525,0.2666,0.2512,0.2512,0.2445,0.279,0.2632,0.263,0.2735,0.274,0.2744,0.2664,0,0.157,0.1658,0.1668,0.1724,0.176,0.1792,0.1854,0.1935,0.2019,0.2101,0.2245,0.2344,0.2412,0.248,0.2614,0.2628,0.2723,0.2681,0.2665,0.2661,0.2491,0.2651,0.2531,0.2445,0.2678,0.268,0.2681,0,0.1598,0.1657,0.1758,0.1757,0.1766,0.1807,0.1879,0.1949,0.2092,0.217,0.2352,0.2427,0.2617,0.2648,0.2815,0.2793,0.2843,0.2838,0.2835,0.2646,0.2535,0.2342,0.2462,0.2704,0.2703,0.2701,0.2699,0,0.1589,0.1672,0.1751,0.1778,0.1825,0.1863,0.187,0.1982,0.2045,0.2249,0.2319,0.2526,0.2658,0.2766,0.2814,0.2849,0.2904,0.2937,0.2825,0.2806,0.2675,0.2638,0.3091,0.3091,0.3092,0.3092,0.3092,0,0.1564,0.1589,0.1762,0.179,0.183,0.187,0.1929,0.1972,0.2103,0.2197,0.2388,0.2505,0.2719,0.2779,0.2814,0.2824,0.2928,0.2856,0.2818,0.2717,0.2687,0.2896,0.2875,0.3089,0.3089,0.309,0.3091,0,0.1405,0.1573,0.165,0.1783,0.1832,0.185,0.1921,0.1953,0.2095,0.2254,0.2326,0.2523,0.2601,0.267,0.2776,0.281,0.2792,0.2776,0.2563,0.2505,0.2626,0.2615,0.2673,0.2668,0.2664,0.266,0.2657,0,0.1313,0.1375,0.1617,0.1701,0.1746,0.1825,0.1866,0.1977,0.2035,0.2245,0.2292,0.2436,0.2525,0.252,0.254,0.2503,0.264,0.241,0.2501,0.2648,0.2605,0.26,0.2594,0.2354,0.2348,0.2344,0.234,0,0.1117,0.1259,0.1303,0.1508,0.1635,0.173,0.1805,0.1859,0.2027,0.2144,0.2274,0.234,0.2398,0.2344,0.2284,0.2248,0.2397,0.2319,0.2587,0.247,0.234,0.2298,0.2306,0.2301,0.2305,0.2308,0.231,0.2312,0.099,0.099,0.1166,0.1271,0.1421,0.1585,0.164,0.1733,0.1832,0.1993,0.2128,0.2203,0.2253,0.2095,0.1997,0.1959,0.2125,0.2147,0.2165,0.2187,0.2157,0.2027,0.1915,0.1916,0.1918,0.1919,0.192,0,0.0899,0.0903,0.0931,0.1138,0.1195,0.1404,0.1547,0.1607,0.1701,0.1867,0.1978,0.1875,0.1818,0.1837,0.1753,0.1735,0.1742,0.168,0.1761,0.18,0.1835,0.1792,0.145,0.1448,0.1447,0.1445,0,0,0.0906,0.0886,0.0856,0.0926,0.106,0.1256,0.1385,0.1434,0.1523,0.1591,0.1661,0.1796,0.1862,0.1676,0.1624,0.1569,0.1666,0.1486,0.1873,0.2013,0.2046,0.2117,0.2095,0,0,0,0,0]},{"header":{"parameterUnit":"m.s-1","parameterCategory":2,"la1":30.2991,"la2":30.254,"lo1":-89.0895,"lo2":-89.0444,"dy":0.0017,"dx":0.0017,"nx":28,"ny":28,"refTime":"2024-11-27T09:00:00:Z","depth":"2","parameterNumber":3,"parameterNumberName":"V-component_of_CURRENTS"},"data":[0,0,0,0,0,0,0,0,0,0,0,0,0,0,0,0,0,0,0,0,0,0,0,0,0,0,0,0,0,0,0,0,0,0,0,0,0,0,0,0,0,0,0,0,0,0,0,0,0,0,0,0,0,0,0,0,0,0,0.0113,0.0113,0,0.0047,0.0045,0.0044,-0.0026,-0.0026,-0.0026,-0.0026,-0.013,-0.0133,-0.0136,0,0,0,0,0,0,0,0,0,0,0,0,0,0.0152,0.0151,0.0113,0.0113,0.0113,0.0047,0.0045,0.0043,-0.0026,-0.0026,-0.0026,-0.0026,-0.013,-0.0133,-0.0136,0,0,0,0,0,0,0,0,0,0,0,0,0,0.0105,0.0151,0.0112,0.0079,0.0076,0.0048,0.0045,0.0043,-0.0026,-0.0026,-0.0026,-0.0026,-0.0128,-0.0133,-0.0137,-0.0165,0,0,-0.015,-0.0152,0,0,0,0,0,0,0,0,0.0108,0.0102,0.0084,0.0081,0.0078,0.0029,0.0022,-0.0025,-0.0026,0.0001,-0.0026,-0.0026,-0.0073,-0.0082,-0.011,-0.017,-0.0174,-0.015,-0.0153,-0.0155,-0.0156,0,0,0,0,0,0,0,0.0111,0.0105,0.0075,0.0084,0.0081,0.0059,0.0052,0.0012,-0.0046,-0.0002,-0.0004,0.0007,-0.0077,-0.0106,-0.0113,-0.0176,-0.015,-0.0154,-0.0156,-0.0158,-0.018,-0.0178,0,0,0,0,0,0,0.0143,0.0108,0.0077,0.0074,0.0106,0.006,0.005,0.0035,-0.0045,-0.0053,0.0007,0.0004,-0.0099,-0.0108,-0.0117,-0.0068,-0.0154,-0.0158,-0.0161,-0.0182,-0.018,-0.0178,0,0,0,0,0,0,0.0144,0.014,0.008,0.01,0.0093,0.006,0.0043,0.0034,0.0015,-0.0035,-0.0047,-0.0,-0.0099,-0.0111,-0.0125,-0.0075,-0.016,-0.0164,-0.0185,-0.0182,-0.0179,-0.0025,0,0,0,0,0,0,0.0145,0.014,0.0157,0.0102,0.0093,0.0058,0.0044,0.0033,0.0027,0.0022,-0.0046,-0.0056,-0.01,-0.0118,-0.0129,-0.0083,-0.0168,-0.0187,-0.0183,-0.018,-0.0032,-0.0017,-0.0003,0,0,0,0,0,0.0146,0.0158,0.0157,0.0156,0.0111,0.0059,0.005,0.0021,0.0027,0.0005,-0.0009,-0.0053,-0.0102,-0.012,-0.0134,-0.0087,-0.0189,-0.0184,-0.018,-0.0039,-0.002,-0.0004,0,0,0,0,0,0,0.0184,0.0152,0.0149,0.0153,0.0113,0.0051,0.0054,0.0032,0.0,0.0022,-0.004,-0.0052,-0.0049,-0.009,-0.0108,-0.0082,-0.0149,-0.0147,-0.0036,-0.0019,-0.0005,-0.0005,-0.0171,0,0,0,0,0,0.0206,0.0197,0.0161,0.0159,0.0153,0.0108,0.0096,0.0077,0.0044,0.0029,-0.0015,-0.0036,-0.0044,-0.0048,-0.0086,-0.0072,-0.0147,-0.0048,-0.0033,-0.0021,-0.0029,-0.0078,-0.007,-0.0163,-0.0163,-0.0163,0,0,0.0218,0.0205,0.02,0.0167,0.0142,0.0131,0.0096,0.0087,0.0094,0.0026,0.0023,-0.0003,-0.0035,-0.0019,-0.0019,-0.0041,-0.0035,-0.0015,-0.0004,-0.002,-0.0073,-0.0064,-0.0056,-0.016,-0.0161,-0.0161,0,0,0.0248,0.0229,0.0247,0.0222,0.0213,0.0168,0.0171,0.0124,0.0124,0.012,0.0095,0.0095,0.0059,0.0053,0.005,0.0117,0.003,0.0126,0.0214,0.0168,0.0174,0.0179,0.0088,0.0084,0.015,0.015,0.0151,0,0.0287,0.0281,0.024,0.0258,0.0251,0.0189,0.0202,0.0187,0.0143,0.0145,0.014,0.0121,0.0091,0.0133,0.0175,0.0148,0.0097,0.0156,0.0186,0.0189,0.0192,0.0096,0.009,0.0158,0.0157,0.0157,0.0156,0,0.0317,0.0331,0.0335,0.0325,0.0306,0.0296,0.0277,0.0262,0.0254,0.023,0.0258,0.0242,0.0244,0.0245,0.0238,0.0272,0.0219,0.0197,0.0142,0.021,0.0105,0.0096,0.017,0.0167,0.0164,0.0163,0,0,0.0339,0.0361,0.0363,0.0364,0.0345,0.0308,0.0341,0.0313,0.032,0.032,0.0353,0.0369,0.0379,0.0378,0.0388,0.0356,0.0337,0.0313,0.0307,0.0222,0.021,0.0146,0.0127,0.0337,0.0337,0.0336,0.0126,0,0.0374,0.0426,0.0421,0.0419,0.0422,0.0387,0.0394,0.0376,0.037,0.0377,0.0409,0.0428,0.0437,0.0475,0.0466,0.035,0.0321,0.0393,0.0156,0.0147,0.0082,0.0118,0.014,-0.0046,0.0116,0.0114,0.0113,0,0.0374,0.0416,0.047,0.0448,0.0446,0.0442,0.0411,0.0428,0.044,0.0464,0.0527,0.0526,0.0549,0.0544,0.0416,0.0471,0.0374,0.0268,0.0257,0.0132,0.0066,-0.0087,-0.0071,0.0095,0.0096,0.0097,0.0099,0,0.0345,0.0398,0.044,0.0443,0.0449,0.0466,0.0454,0.0452,0.0502,0.0546,0.0588,0.0589,0.0641,0.0512,0.0354,0.0392,0.0146,0.0161,-0.0001,-0.0009,-0.0075,-0.0088,0.0062,0.0063,0.0063,0.0064,0.0064,0,0.0317,0.0333,0.0439,0.0451,0.0471,0.0484,0.0516,0.0508,0.0598,0.0675,0.0677,0.074,0.0643,0.0517,0.0347,0.0128,0.0148,-0.0,-0.0058,-0.0022,-0.0026,0.0031,0.0031,0.0056,0.0057,0.0059,0.006,0,0.0231,0.0321,0.0363,0.0439,0.046,0.048,0.0577,0.0613,0.0687,0.0818,0.0859,0.086,0.069,0.0492,0.024,0.0133,-0.012,-0.0203,-0.0176,-0.0225,-0.0242,-0.0232,-0.0387,-0.039,-0.0394,-0.0396,-0.0399,0,0.0188,0.0219,0.0343,0.0403,0.0446,0.0516,0.0569,0.0663,0.0756,0.088,0.095,0.0858,0.0776,0.0341,0.0083,-0.0271,-0.0239,-0.0427,-0.0333,-0.0243,-0.0284,-0.0269,-0.0255,-0.0376,-0.0378,-0.038,-0.0381,0,0.012,0.0188,0.0241,0.0369,0.0462,0.0566,0.0678,0.078,0.0937,0.1039,0.1131,0.1052,0.0691,0.0349,-0.0115,-0.0325,-0.0372,-0.0467,-0.0397,-0.0251,-0.0245,-0.0282,-0.0266,-0.0395,-0.0394,-0.0393,-0.0392,-0.0391,0.0091,0.0124,0.0245,0.033,0.0459,0.0641,0.0764,0.0903,0.1083,0.126,0.1198,0.1096,0.0705,0.0094,-0.0248,-0.0509,-0.0491,-0.0554,-0.0544,-0.0533,-0.0479,-0.0477,-0.0664,-0.0664,-0.0665,-0.0665,-0.0665,0,0.0107,0.0149,0.0205,0.0395,0.054,0.063,0.0857,0.1016,0.1242,0.1281,0.1327,0.0958,0.0503,0.0111,-0.0296,-0.0592,-0.0562,-0.065,-0.0535,-0.0523,-0.0512,-0.045,-0.0632,-0.0632,-0.0632,-0.0632,0,0,0.0152,0.0212,0.0225,0.0454,0.0604,0.0901,0.1073,0.1242,0.1334,0.1371,0.1306,0.1056,0.0557,0.0269,-0.0146,-0.0348,-0.0343,-0.0389,-0.0397,-0.0203,-0.0186,-0.046,-0.0353,0,0,0,0,0]}],[{"header":{"parameterUnit":"m.s-1","parameterCategory":2,"la1":30.2991,"la2":30.254,"lo1":-89.0895,"lo2":-89.0444,"dy":0.0017,"dx":0.0017,"nx":28,"ny":28,"refTime":"2024-11-27T09:00:00:Z","depth":"4","parameterNumber":2,"parameterNumberName":"U-component_of_CURRENTS"},"data":[0,0,0,0,0,0,0,0,0,0,0,0,0,0,0,0,0,0,0,0,0,0,0,0,0,0,0,0,0,0,0,0,0,0,0,0,0,0,0,0,0,0,0,0,0,0,0,0,0,0,0,0,0,0,0,0,0,0,0.0142,0.0143,0,0.0192,0.0192,0.0192,0.0189,0.0189,0.0189,0.0189,0.0205,0.0206,0.0206,0,0,0,0,0,0,0,0,0,0,0,0,0,0.0103,0.0103,0.0142,0.0143,0.0144,0.0192,0.0192,0.0192,0.0189,0.0189,0.0189,0.0189,0.0205,0.0206,0.0206,0,0,0,0,0,0,0,0,0,0,0,0,0,0.0126,0.0103,0.0142,0.0154,0.0156,0.0192,0.0192,0.0192,0.0189,0.0189,0.0189,0.0189,0.0205,0.0206,0.0206,0.0213,0,0,0.0209,0.0209,0,0,0,0,0,0,0,0,0.0125,0.0127,0.0151,0.0153,0.0156,0.0191,0.0185,0.02,0.0189,0.0169,0.0189,0.0189,0.0202,0.0203,0.0203,0.0214,0.0214,0.0209,0.0209,0.0209,0.021,0,0,0,0,0,0,0,0.0123,0.0125,0.0154,0.0152,0.0156,0.0178,0.018,0.0187,0.0179,0.0171,0.0173,0.019,0.0202,0.0202,0.0203,0.0215,0.0209,0.0209,0.021,0.021,0.0241,0.0242,0,0,0,0,0,0,0.0128,0.0123,0.0153,0.0157,0.0148,0.0179,0.0181,0.0174,0.018,0.0183,0.019,0.019,0.0201,0.0202,0.0204,0.0223,0.0209,0.021,0.0211,0.0241,0.0241,0.0242,0,0,0,0,0,0,0.0127,0.0129,0.0151,0.0148,0.0154,0.018,0.0172,0.0175,0.0177,0.0196,0.0197,0.019,0.0201,0.0203,0.0217,0.0223,0.021,0.0211,0.024,0.0241,0.0242,0.0254,0,0,0,0,0,0,0.0125,0.0128,0.0125,0.0148,0.0154,0.0168,0.0173,0.0176,0.0191,0.0191,0.0197,0.0198,0.0201,0.0216,0.0218,0.0224,0.0212,0.024,0.0241,0.0241,0.0253,0.0255,0.0256,0,0,0,0,0,0.0123,0.0117,0.0124,0.0128,0.0148,0.0169,0.0173,0.0188,0.0192,0.0189,0.0201,0.0198,0.0222,0.0217,0.0219,0.0225,0.024,0.0241,0.0241,0.0252,0.0254,0.0256,0,0,0,0,0,0,0.0091,0.0118,0.0125,0.0125,0.0146,0.0171,0.0178,0.0189,0.0196,0.0203,0.0206,0.0208,0.0223,0.0223,0.0218,0.0236,0.0229,0.023,0.0237,0.0239,0.024,0.025,0.0212,0,0,0,0,0,0.0087,0.0097,0.0119,0.0124,0.013,0.0154,0.0166,0.0183,0.0199,0.0201,0.0212,0.0222,0.0228,0.0232,0.0242,0.0252,0.0256,0.0256,0.0258,0.026,0.0269,0.0264,0.0266,0.0245,0.0245,0.0245,0,0,0.0077,0.0098,0.0102,0.0121,0.0136,0.0155,0.0158,0.0184,0.0209,0.0203,0.0232,0.0232,0.0233,0.0247,0.0253,0.0247,0.0272,0.0261,0.0262,0.0271,0.0265,0.0267,0.0269,0.0245,0.0245,0.0245,0,0,0.0075,0.0078,0.0086,0.0106,0.0145,0.0163,0.017,0.02,0.0215,0.0248,0.0246,0.0248,0.0269,0.0264,0.0265,0.0281,0.0283,0.0284,0.0298,0.0293,0.0295,0.0296,0.032,0.0323,0.0281,0.0281,0.0281,0,0.0063,0.0076,0.0093,0.0112,0.0132,0.0165,0.0179,0.0206,0.0244,0.0261,0.0262,0.028,0.0278,0.0279,0.0287,0.0284,0.0293,0.0289,0.0295,0.0296,0.0298,0.0321,0.0325,0.0282,0.0282,0.0282,0.0282,0,0.008,0.0085,0.0092,0.0127,0.0147,0.0169,0.021,0.0242,0.027,0.0297,0.0317,0.0309,0.032,0.0311,0.0308,0.0311,0.032,0.0299,0.0289,0.03,0.0325,0.0329,0.0283,0.0283,0.0283,0.0282,0,0,0.0061,0.0092,0.0096,0.0106,0.0157,0.0175,0.0225,0.0268,0.0308,0.0333,0.0362,0.0357,0.0358,0.0358,0.0339,0.0327,0.0345,0.0322,0.0321,0.0345,0.0361,0.0398,0.0405,0.0324,0.0324,0.0324,0.038,0,0.0065,0.0083,0.0111,0.0138,0.0142,0.0193,0.0234,0.0287,0.0336,0.0381,0.0376,0.0401,0.0375,0.038,0.0364,0.035,0.0353,0.0334,0.0347,0.0348,0.0378,0.0409,0.0325,0.0383,0.0384,0.0384,0.0385,0,0.0078,0.0085,0.0097,0.013,0.0139,0.0173,0.0246,0.0291,0.0368,0.0403,0.0428,0.0449,0.0447,0.042,0.0405,0.0397,0.0393,0.0374,0.0375,0.0408,0.0391,0.0365,0.0391,0.0391,0.039,0.039,0.0389,0,0.0054,0.0079,0.0084,0.0098,0.0145,0.0174,0.0213,0.0295,0.0344,0.0425,0.0473,0.0477,0.0501,0.0469,0.0466,0.044,0.0457,0.0412,0.0443,0.0446,0.0388,0.0386,0.0413,0.0413,0.0413,0.0413,0.0413,0,0.0054,0.0056,0.0074,0.0079,0.0104,0.0151,0.021,0.0264,0.0349,0.0412,0.0476,0.0522,0.0516,0.0541,0.0498,0.0502,0.0489,0.0465,0.0464,0.0395,0.0393,0.0392,0.0389,0.0415,0.0415,0.0414,0.0414,0,0.0037,0.0045,0.0045,0.0076,0.0091,0.0113,0.0197,0.0253,0.0339,0.0427,0.0459,0.0569,0.0616,0.0619,0.0601,0.057,0.0543,0.0549,0.0519,0.0512,0.0527,0.0524,0.0581,0.0583,0.0585,0.0586,0.0587,0,0.0025,0.0022,0.0031,0.0038,0.0056,0.0099,0.0145,0.0232,0.0302,0.0447,0.049,0.0601,0.0663,0.0689,0.0667,0.064,0.0618,0.0619,0.0534,0.0553,0.0545,0.0539,0.0534,0.0589,0.059,0.059,0.0591,0,-0.0003,0.0002,0.0006,0.0017,0.0048,0.0097,0.0169,0.0219,0.0343,0.0406,0.0545,0.0612,0.0696,0.071,0.0736,0.0684,0.0615,0.0634,0.0629,0.0549,0.0563,0.0552,0.0545,0.0596,0.0595,0.0595,0.0594,0,-0.0035,-0.0032,-0.0023,0.0002,0.0036,0.0108,0.0146,0.0254,0.0332,0.0494,0.0526,0.0634,0.0702,0.0736,0.0721,0.0726,0.069,0.0643,0.0636,0.063,0.0617,0.064,0.0713,0,0,0,0,0,-0.007,-0.0049,-0.0033,0.0002,0.0049,0.0084,0.0177,0.0231,0.0336,0.0433,0.0492,0.057,0.0646,0.0687,0.0696,0.0705,0.0664,0.0711,0.0599,0.0625,0.0619,0.0597,0,0,0,0,0,0,-0.0092,-0.0083,-0.0044,0.0016,0.0051,0.012,0.0184,0.0258,0.0329,0.0425,0.0472,0.0533,0.0602,0.0631,0.0682,0.0689,0.061,0.0756,0.0756,0.0628,0.0623,0.0618,0.0593,0,0,0,0,0]},{"header":{"parameterUnit":"m.s-1","parameterCategory":2,"la1":30.2991,"la2":30.254,"lo1":-89.0895,"lo2":-89.0444,"dy":0.0017,"dx":0.0017,"nx":28,"ny":28,"refTime":"2024-11-27T09:00:00:Z","depth":"4","parameterNumber":3,"parameterNumberName":"V-component_of_CURRENTS"},"data":[0,0,0,0,0,0,0,0,0,0,0,0,0,0,0,0,0,0,0,0,0,0,0,0,0,0,0,0,0,0,0,0,0,0,0,0,0,0,0,0,0,0,0,0,0,0,0,0,0,0,0,0,0,0,0,0,0,0,-0.0232,-0.0233,0,-0.0278,-0.0279,-0.0279,-0.0318,-0.0318,-0.0319,-0.032,-0.0441,-0.0444,-0.0446,0,0,0,0,0,0,0,0,0,0,0,0,0,-0.0174,-0.0174,-0.0232,-0.0233,-0.0234,-0.0278,-0.0279,-0.0279,-0.0318,-0.0318,-0.0319,-0.032,-0.044,-0.0443,-0.0446,0,0,0,0,0,0,0,0,0,0,0,0,0,-0.0204,-0.0174,-0.0232,-0.0261,-0.0264,-0.0278,-0.0279,-0.0279,-0.0317,-0.0318,-0.0319,-0.032,-0.0439,-0.0443,-0.0447,-0.045,0,0,-0.0459,-0.046,0,0,0,0,0,0,0,0,-0.0203,-0.0206,-0.0256,-0.0259,-0.0262,-0.0296,-0.0303,-0.0341,-0.0317,-0.0294,-0.032,-0.0321,-0.0401,-0.0408,-0.0409,-0.0456,-0.0461,-0.0459,-0.0461,-0.0463,-0.0464,0,0,0,0,0,0,0,-0.02,-0.0204,-0.0247,-0.0257,-0.0261,-0.027,-0.0275,-0.0309,-0.034,-0.0296,-0.03,-0.0309,-0.0403,-0.0405,-0.0412,-0.0463,-0.0459,-0.0462,-0.0465,-0.0466,-0.0591,-0.0592,0,0,0,0,0,0,-0.02,-0.0202,-0.0246,-0.0249,-0.0238,-0.027,-0.0276,-0.0282,-0.0338,-0.0348,-0.0308,-0.0311,-0.0398,-0.0408,-0.0417,-0.0513,-0.0463,-0.0467,-0.0469,-0.059,-0.0591,-0.0592,0,0,0,0,0,0,-0.0198,-0.0203,-0.0244,-0.0229,-0.0236,-0.0271,-0.0276,-0.0282,-0.0306,-0.0347,-0.0358,-0.0329,-0.0399,-0.0411,-0.0462,-0.0514,-0.0468,-0.0472,-0.0589,-0.059,-0.0591,-0.0648,0,0,0,0,0,0,-0.0196,-0.0202,-0.0208,-0.0229,-0.0237,-0.0269,-0.0276,-0.0282,-0.0311,-0.0315,-0.0369,-0.0379,-0.0401,-0.0456,-0.0466,-0.0519,-0.0475,-0.0587,-0.0589,-0.0591,-0.0645,-0.0651,-0.0656,0,0,0,0,0,-0.0194,-0.0208,-0.0208,-0.0214,-0.0243,-0.027,-0.0275,-0.0301,-0.0311,-0.0325,-0.0358,-0.0379,-0.0475,-0.046,-0.0471,-0.0527,-0.0586,-0.0589,-0.0591,-0.0642,-0.065,-0.0656,0,0,0,0,0,0,-0.0196,-0.0213,-0.0215,-0.0235,-0.0255,-0.0278,-0.0297,-0.0309,-0.0343,-0.0354,-0.0387,-0.04,-0.0464,-0.0478,-0.046,-0.0564,-0.0536,-0.0541,-0.0571,-0.0579,-0.0585,-0.0572,-0.0478,0,0,0,0,0,-0.0194,-0.0205,-0.0224,-0.0243,-0.0252,-0.0273,-0.0289,-0.0306,-0.0337,-0.0353,-0.0396,-0.0437,-0.0477,-0.0513,-0.0544,-0.0602,-0.0589,-0.0644,-0.065,-0.0655,-0.0651,-0.067,-0.0678,-0.0599,-0.0599,-0.0599,0,0,-0.0208,-0.0213,-0.0225,-0.0243,-0.0259,-0.0276,-0.0286,-0.0317,-0.0341,-0.0362,-0.0421,-0.0457,-0.0492,-0.0556,-0.0588,-0.0581,-0.0669,-0.0658,-0.0662,-0.0655,-0.0674,-0.0681,-0.0688,-0.0601,-0.06,-0.06,0,0,-0.0229,-0.0237,-0.0249,-0.0262,-0.0285,-0.0294,-0.0306,-0.0342,-0.037,-0.0425,-0.0444,-0.0505,-0.0576,-0.0612,-0.0636,-0.069,-0.069,-0.0712,-0.075,-0.077,-0.0776,-0.0782,-0.0766,-0.077,-0.0727,-0.0727,-0.0727,0,-0.0243,-0.0248,-0.0261,-0.0271,-0.028,-0.0303,-0.0317,-0.0347,-0.0401,-0.0421,-0.0456,-0.0553,-0.0603,-0.0658,-0.0696,-0.0708,-0.0701,-0.0725,-0.0778,-0.0783,-0.0788,-0.077,-0.0774,-0.073,-0.0729,-0.0729,-0.0729,0,-0.027,-0.027,-0.0281,-0.0291,-0.0308,-0.0325,-0.0357,-0.0392,-0.0435,-0.0465,-0.0541,-0.0608,-0.0664,-0.0707,-0.0735,-0.0798,-0.0774,-0.0775,-0.076,-0.0799,-0.0778,-0.078,-0.0734,-0.0733,-0.0732,-0.0731,0,0,-0.0293,-0.0297,-0.0298,-0.0282,-0.0313,-0.0319,-0.0368,-0.0399,-0.0422,-0.0509,-0.0544,-0.0663,-0.0699,-0.0728,-0.0773,-0.0821,-0.0875,-0.0831,-0.083,-0.0814,-0.0894,-0.0839,-0.0835,-0.089,-0.0891,-0.0892,-0.0862,0,-0.03,-0.0293,-0.0311,-0.0308,-0.0293,-0.0329,-0.0366,-0.0403,-0.0455,-0.0499,-0.0579,-0.0637,-0.0704,-0.0749,-0.0808,-0.0852,-0.0886,-0.0881,-0.0858,-0.0857,-0.0803,-0.0839,-0.0896,-0.0863,-0.0864,-0.0864,-0.0865,0,-0.0298,-0.0284,-0.0275,-0.0267,-0.0273,-0.0295,-0.0324,-0.0365,-0.0432,-0.0479,-0.0551,-0.0602,-0.0695,-0.0743,-0.0838,-0.0832,-0.0871,-0.0905,-0.0904,-0.0833,-0.0807,-0.0818,-0.0869,-0.0869,-0.0868,-0.0868,-0.0868,0,-0.0242,-0.0248,-0.0225,-0.0226,-0.0244,-0.0264,-0.0296,-0.0358,-0.0388,-0.0461,-0.0493,-0.0584,-0.0638,-0.0713,-0.0809,-0.083,-0.088,-0.0903,-0.0874,-0.0868,-0.0901,-0.0895,-0.0951,-0.0951,-0.0951,-0.0951,-0.0951,0,-0.0204,-0.0187,-0.0196,-0.0179,-0.0168,-0.0217,-0.0237,-0.0285,-0.0355,-0.0373,-0.048,-0.051,-0.0642,-0.0691,-0.0774,-0.0822,-0.0847,-0.0876,-0.0865,-0.0923,-0.092,-0.0902,-0.0896,-0.095,-0.095,-0.095,-0.0951,0,-0.0141,-0.0145,-0.011,-0.0126,-0.0129,-0.0129,-0.0189,-0.0213,-0.0294,-0.032,-0.0346,-0.0453,-0.0526,-0.0618,-0.0717,-0.0762,-0.0818,-0.082,-0.0842,-0.0832,-0.0798,-0.0796,-0.0791,-0.0789,-0.0787,-0.0786,-0.0784,0,-0.0111,-0.0082,-0.0057,-0.0039,-0.0051,-0.0064,-0.0081,-0.0165,-0.019,-0.0278,-0.0279,-0.0363,-0.043,-0.0505,-0.0623,-0.072,-0.0746,-0.0756,-0.0828,-0.0796,-0.0786,-0.0787,-0.0787,-0.0782,-0.0781,-0.0781,-0.078,0,-0.0055,-0.0046,-0.0016,0.0023,0.0027,0.0025,-0.001,-0.0018,-0.011,-0.0159,-0.021,-0.0291,-0.0349,-0.046,-0.0524,-0.0609,-0.075,-0.074,-0.0745,-0.0813,-0.0785,-0.0777,-0.0779,-0.0774,-0.0775,-0.0776,-0.0776,0,-0.002,0.0013,0.0049,0.0081,0.009,0.0081,0.0064,0.0024,-0.0012,-0.0109,-0.0105,-0.0221,-0.0288,-0.0398,-0.0464,-0.0534,-0.0576,-0.061,-0.0623,-0.0631,-0.0611,-0.0554,-0.0461,0,0,0,0,0,0.0008,0.005,0.0091,0.0121,0.0119,0.0117,0.0095,0.0063,0.0009,-0.0004,-0.0064,-0.0121,-0.0251,-0.0322,-0.0378,-0.045,-0.0594,-0.052,-0.064,-0.0741,-0.0748,-0.0749,0,0,0,0,0,0,0.0037,0.0081,0.0109,0.0132,0.0146,0.0134,0.0119,0.0084,0.0066,0.0013,-0.0049,-0.0111,-0.0234,-0.02,-0.0367,-0.0395,-0.0476,-0.0591,-0.0592,-0.0737,-0.0744,-0.0749,-0.0753,0,0,0,0,0]}]]